Regional Weather Roundup
Issued by NWS Mobile, AL

Home | Current Version | Previous Version | Text Only | Print | Product List | Glossary On
Versions: 1 2 3 4 5 6 7 8 9 10 11 12 13 14 15 16 17 18 19 20 21 22 23 24 25 26 27 28 29 30 31 32 33 34 35 36 37 38 39 40 41 42 43 44 45 46 47 48 49 50
000
ASUS44 KMOB 111512
RWRMOB
REGIONAL WEATHER ROUNDUP
NATIONAL WEATHER SERVICE MOBILE AL
900 AM CST THU FEB 11 2016

NOTE: "FAIR" INDICATES FEW OR NO CLOUDS BELOW 12,000 FEET WITH NO
      SIGNIFICANT WEATHER AND/OR OBSTRUCTIONS TO VISIBILITY.

  * THESE STATIONS ARE PART OF THE UNIVERSITY OF SOUTH ALABAMA
    MESONET AND ARE NOT UNDER NWS OR FAA QUALITY CONTROL.

ALZ061>064-111600-
COASTAL ALABAMA

CITY           SKY/WX    TMP DP  RH WIND       PRES   REMARKS
MOBILE REG APT SUNNY     57  47  69 SW14G22   30.23S
BROOKLEY FIELD SUNNY     58  45  62 VRB6      30.25S
USA CAMPUS*    NOT AVBL
DOG RIVER*     NOT AVBL


CITY           SKY/WX    TMP DP  RH WIND       PRES   REMARKS
MOUNT VERNON*  NOT AVBL
SARALAND*      NOT AVBL
BAY MINETTE*   NOT AVBL
LOXLEY*        NOT AVBL
ROBERTSDALE*   NOT AVBL
FAIRHOPE*      NOT AVBL
ELBERTA*       NOT AVBL
FOLEY*         NOT AVBL
GRAND BAY*     NOT AVBL
DAUPHIN ISLND* NOT AVBL
BON SCOUR NWR* NOT AVBL
GULF SHORES    SUNNY     62  47  58 W14G21    30.25R

$$

ALZ051>060-111600-
INTERIOR SOUTHWEST AND SOUTH CENTRAL ALABAMA

CITY           SKY/WX    TMP DP  RH WIND       PRES   REMARKS
GREENVILLE     SUNNY     50  34  54 SW10      30.18F
EVERGREEN      SUNNY     52  38  58 SW9       30.22S
CASTLEBERRY*   NOT AVBL
ATMORE*        NOT AVBL
DIXIE*         NOT AVBL
ANDALUSIA/OPP  SUNNY     55  38  52 W8        30.22
ANDALUSIA*     NOT AVBL
FLORALA APT    SUNNY     54  42  64 SW10      30.25S
FLORALA*       NOT AVBL

$$

FLZ001>006-111600-
WESTERN FLORIDA PANHANDLE

CITY           SKY/WX    TMP DP  RH WIND       PRES   REMARKS
PENSACOLA      SUNNY     61  44  53 SW10      30.24F
NAS PENSACOLA  SUNNY     63  46  54 SW12      30.24F
MILTON         SUNNY     57  46  66 S10       30.24S
WHTNG S FIELD  SUNNY     56  45  66 S6        30.24F


CITY           SKY/WX    TMP DP  RH WIND       PRES   REMARKS
WALNUT HILL*   NOT AVBL
JAY*           NOT AVBL
DUKE FIELD     SUNNY     55  44  66 S8        30.24R
CRESTVIEW      SUNNY     52  43  71 S3        30.27R
VALPARAISO     SUNNY     57  48  71 SW7       30.24F
DESTIN         SUNNY     61  51  70 VRB5      30.26S

$$

MSZ076-079-111600-
INTERIOR SOUTHEAST MISSISSIPPI

CITY           SKY/WX    TMP DP  RH WIND       PRES   REMARKS
LEAKESVILLE*   NOT AVBL
AGRICOLA*      NOT AVBL

$$

MARINE OBSERVATIONS

STATION/POSITION TIME  TEMP    WIND        PRES    WAVE
                       AIR SEA DIR/SP/G            HT/PER
                 (UTC) (F)     (DEG/KT/KT) (MB)    (FT/S)
PASCAGOULA       1400   56     230/  5/  9 1023.6R
PETIT BOIS ISLND 1400   58     230/ 13/ 16 1024.2R
KATRINA CUT      1400   57     250/ 13       N/A
CEDAR POINT      1400   54     240/  9     1023.4S
E DAUPHIN ISLAND 1300   57     240/  9/ 12 1023.6R
MIDDLE BAY LIGHT 1400          210/  7     1023.4S
USCG MOBILE BAY  1400   51 52  200/  2/  4 1024.2R
STATE DOCKS      1400   52 52              1023.4R
MEAHER PARK      1400   52     160/  6     1024.0R
WEEKS BAY        1300   42                   N/A
FORT MORGAN      1400   58     250/ 18/ 19 1023.3R
12 S ORANGE BCH  1250   61 64  240/ 16/ 17 1023.4    4/ 6
PENSACOLA BAY    1400   54 49   80/  1/  2 1024.5R

$$

SELECTED LOCATIONS ACROSS THE REGION

CITY           SKY/WX    TMP DP  RH WIND       PRES   REMARKS
NEW ORLEANS    SUNNY     61  50  67 SW13      30.23R
GULFPORT       SUNNY     58  48  69 SW7       30.23R
PASCAGOULA AP  SUNNY     61  48  62 SW8       30.24R
PASCAGOULA*    NOT AVBL
HATTIESBURG    SUNNY     59  48  67 W12G21    30.19S
LAUREL         MOSUNNY   55  46  71 SW8G18    30.18R
MERIDIAN       SUNNY     49  39  68 S3        30.15R
JACKSON        SUNNY     57  45  64 SW6       30.13R
MONTGOMERY     SUNNY     47  34  60 SW6       30.21R
TROY           SUNNY     49  36  61 S8        30.22S
KINSTON*       NOT AVBL
GENEVA*        NOT AVBL
ASHFORD*       NOT AVBL
DOTHAN         SUNNY     52  39  61 SW9       30.27R
PANAMA CITY    SUNNY     52  40  63 SE5       30.27R

$$




USA.gov is the U.S. government's official web portal to all federal, state and local government web resources and services.